Location: Willingham
(52.3167°N, 0.0667°E)
Time: 06:03:34
(UTC+00:00)

Cosmos 1842 Rocket - Pass Details

Date: 19 May 2025
Orbit: 600 x 626 km, 82.5° (Epoch: 18 June)

Event Time Altitude Azimuth Distance (km) Brightness Sun altitude
Exits shadow 23:02:49 29° 195° (SSW) 1,102 4.3 -16.8°
Maximum altitude 23:04:57 83° 280° (W) 613 3.5 -16.8°
Drops below altitude 10° 23:09:17 10° 10° (N) 1,958 7.2 -17.0°
Sets 23:11:31 0° 11° (N) 2,867 8.3 -17.0°
